Location: Acequia del Cap
(41.7000°N, 0.6167°E)
Time: 14:56:56
(UTC+00:00)

Cosmos 1758 - Pass Details

Date: 07 August 2020
Orbit: 540 x 562 km, 82.5° (Epoch: 23 September)

Event Time Altitude Azimuth Distance (km) Brightness Sun altitude
Exits shadow 03:12:14 39° 226° (SW) 847 3.7 -17.4°
Maximum altitude 03:13:25 55° 280° (W) 675 3.5 -17.3°
Drops below altitude 10° 03:17:24 10° 359° (N) 1,838 6.5 -16.7°
Sets 03:19:36 0° 4° (N) 2,733 7.6 -16.4°
